Location: Unspecified
(0.0000°N, 0.0000°E)
Time: 07:20:29
(UTC+00:00)

Explorer 11/Cluster Stage 4 - All Passes

Search period start: 21 April 2014 00:00
Search period end: 01 May 2014 00:00
Orbit: 468 x 1287 km, 28.8° (Epoch: 20 April)

Date Brightness Start Highest point End Pass type
(mag) Time Alt. Az. Time Alt. Az. Time Alt. Az.
21 Apr - 01:01:13 10° SSW 01:05:53 18° SSE 01:10:03 10° ESE night (unlit)
21 Apr - 02:49:25 10° SW 02:55:53 55° SSE 03:00:57 10° ENE visible
21 Apr - 04:39:56 10° W 04:44:43 30° NNW 04:48:39 10° NNE visible
21 Apr - 13:50:30 10° NNW 13:54:38 27° NNE 13:59:38 10° E daylight
21 Apr - 15:37:57 10° WNW 15:43:33 69° SSW 15:50:41 10° SE daylight
21 Apr - 17:28:25 10° WSW 17:33:32 22° SSW 17:39:21 10° SSE daylight
22 Apr - 00:54:21 10° SSW 01:00:01 23° SSE 01:04:58 10° ESE night (unlit)
22 Apr - 02:43:03 10° SW 02:49:53 72° SSE 02:55:13 10° ENE visible
22 Apr - 04:34:14 10° W 04:38:41 23° NNW 04:42:26 10° NNE visible
22 Apr - 13:44:19 10° NNW 13:48:35 34° NNE 13:53:50 10° E daylight
22 Apr - 15:32:12 10° WNW 15:37:32 53° SSW 15:44:17 10° SE daylight
22 Apr - 17:23:18 10° WSW 17:27:39 18° SSW 17:32:29 10° SSE daylight
22 Apr - 23:01:02 10° S 23:03:13 11° SSE 23:05:21 10° SSE night (unlit)
23 Apr - 00:47:37 10° SSW 00:54:05 28° SSE 00:59:38 10° E night (unlit)
23 Apr - 02:36:46 10° WSW 02:43:50 88° NNW 02:49:22 10° ENE visible
23 Apr - 04:28:40 10° WNW 04:32:39 19° NNW 04:36:06 10° NNE visible
23 Apr - 13:38:12 10° NW 13:42:32 44° NNE 13:47:56 10° ESE daylight
23 Apr - 15:26:34 10° W 15:31:34 40° SSW 15:37:48 10° SE daylight
23 Apr - 17:18:29 10° SW 17:21:48 14° SSW 17:25:24 10° S daylight
23 Apr - 22:53:34 10° S 22:57:23 14° SSE 23:01:03 10° SE night (unlit)
24 Apr - 00:40:59 10° SW 00:48:05 35° SSE 00:54:09 10° E night (unlit)
24 Apr - 02:30:32 10° WSW 02:37:44 70° NNW 02:43:24 10° NE visible
24 Apr - 04:23:17 10° WNW 04:26:37 15° NNW 04:29:35 10° N visible
24 Apr - 13:32:11 10° NW 13:36:29 59° NNE 13:41:55 10° ESE daylight
24 Apr - 15:21:03 10° W 15:25:37 30° SSW 15:31:12 10° SE daylight
24 Apr - 17:14:25 10° SSW 17:15:59 11° SSW 17:17:37 10° S daylight
24 Apr - 22:46:33 10° SSW 22:51:29 17° SSE 22:56:12 10° ESE night (unlit)
25 Apr - 00:34:24 10° SW 00:42:01 44° SSE 00:48:30 10° E night (unlit)
25 Apr - 02:24:22 10° WSW 02:31:35 55° NNW 02:37:21 10° NE visible
25 Apr - 04:18:12 10° NW 04:20:35 12° NNW 04:22:48 10° N visible
25 Apr - 11:40:33 10° N 11:41:59 12° NNE 11:43:29 10° NE daylight
25 Apr - 13:26:13 10° WNW 13:30:27 81° NNE 13:35:47 10° ESE daylight
25 Apr - 15:15:41 10° WSW 15:19:43 23° SSW 15:24:29 10° SSE daylight
25 Apr - 22:39:42 10° SSW 22:45:30 20° SSE 22:51:03 10° ESE night (unlit)
26 Apr - 00:27:54 10° SW 00:35:54 55° SSE 00:42:43 10° ENE night (unlit)
26 Apr - 02:18:18 10° WSW 02:25:24 45° NNW 02:31:12 10° NE visible
26 Apr - 04:14:22 10° NNW 04:14:35 10° NNW 04:14:48 10° NNW visible
26 Apr - 11:33:40 10° N 11:36:00 16° NNE 11:38:31 10° ENE daylight
26 Apr - 13:20:21 10° WNW 13:24:27 72° SSW 13:29:34 10° SE daylight
26 Apr - 15:10:33 10° WSW 15:13:50 17° SSW 15:17:35 10° SSE daylight
26 Apr - 22:32:57 10° SSW 22:39:28 24° SSE 22:45:41 10° ESE night (unlit)
27 Apr - 00:21:27 10° SW 00:29:42 68° SSE 00:36:49 10° ENE night (unlit)
27 Apr - 02:12:18 10° W 02:19:12 36° NNW 02:24:58 10° NNE visible
27 Apr - 11:27:08 10° NNW 11:29:59 21° NNE 11:33:06 10° E daylight
27 Apr - 13:14:34 10° WNW 13:18:28 49° SSW 13:23:14 10° SE daylight
27 Apr - 15:05:50 10° SW 15:07:59 13° SSW 15:10:18 10° S daylight
27 Apr - 20:40:42 10° S 20:42:27 11° SSE 20:44:13 10° SSE visible
27 Apr - 22:26:18 10° SSW 22:33:21 29° SSE 22:40:08 10° E night (unlit)
28 Apr - 00:15:04 10° WSW 00:23:28 83° SSE 00:30:48 10° ENE night (unlit)
28 Apr - 02:06:24 10° W 02:13:00 30° NNW 02:18:39 10° NNE visible
28 Apr - 11:20:47 10° NNW 11:23:58 29° NNE 11:27:28 10° E daylight
28 Apr - 13:08:54 10° W 13:12:31 34° SSW 13:16:48 10° SE daylight
28 Apr - 20:33:14 10° S 20:36:30 13° SSE 20:39:50 10° SE visible
28 Apr - 22:19:42 10° SW 22:27:10 35° SSE 22:34:26 10° E night (unlit)
29 Apr - 00:08:45 10° WSW 00:17:11 82° NNW 00:24:41 10° NE night (unlit)
29 Apr - 02:00:36 10° W 02:06:48 25° NNW 02:12:14 10° NNE visible
29 Apr - 11:14:32 10° NW 11:17:58 42° NNE 11:21:40 10° ESE daylight
29 Apr - 13:03:23 10° W 13:06:35 24° SSW 13:10:14 10° SSE daylight
29 Apr - 20:26:15 10° S 20:30:30 15° SSE 20:34:52 10° SE visible
29 Apr - 22:13:10 10° SW 22:20:56 43° SSE 22:28:36 10° E night (unlit)
30 Apr - 00:02:30 10° WSW 00:10:53 68° NNW 00:18:28 10° NE night (unlit)
30 Apr - 01:54:56 10° WNW 02:00:37 21° NNW 02:05:43 10° NNE visible
30 Apr - 11:08:23 10° NW 11:11:57 64° NNE 11:15:44 10° ESE daylight
30 Apr - 12:58:04 10° WSW 13:00:39 17° SSW 13:03:28 10° SSE daylight
30 Apr - 20:19:27 10° SSW 20:24:25 18° SSE 20:29:37 10° ESE visible
30 Apr - 22:06:41 10° SW 22:14:39 52° SSE 22:22:38 10° ENE night (unlit)
30 Apr - 23:56:20 10° WSW 00:00:00 28° W 00:00:00 28° W night (unlit)
